Date String (YYYY-MM-DD hh:mm:ss) UTC,Instrument flags,absolute air pressure of the measurement (hPa),sample flow rate (lpm),inlet stack bypass flow (lpm),air temperature of the measurement (°C),ambient temperature measured by the external sensor (°C),aerosol sample conditioner tube jacket temperature (°C),OPC LED temperature (°C),internal box temperature (°C),relative humidity of the measurement (%),span deviation,mass concentration of particles derived from Lorenz-Mie calculation of OPC scattering (μg/m³),mass concentration of particles derived from Lorenz-Mie calculation of OPC scattering (μg/m³),mass concentration of particles derived from Lorenz-Mie calculation of OPC scattering (μg/m³)
DateTimeUTC,F1_M11,P_M11,Q1_M11,Q2_M11,T1_M11,T2_M11,T3_M11,T4_M11,T5_M11,U1_M11,ZSPAN_M11,X0_M11,X2_M11,X1_M11
2023-07-01 00:00:00,SystemResetWarning,0833.4,5.00,000.00,029.4,026.1,000.0,037.9,030.6,34.1,0000.0,0008.94,0004.22,0003.57
2023-07-01 00:01:00,SystemResetWarning,0833.4,4.99,000.00,029.4,026.5,000.0,037.9,030.7,34.5,0000.0,0009.32,0004.29,0003.62
2023-07-01 00:02:00,SystemResetWarning,0833.4,5.01,000.00,029.3,026.8,000.0,037.9,030.8,34.1,0000.0,0009.44,0004.33,0003.65
2023-07-01 00:03:00,SystemResetWarning,0833.4,5.00,000.00,029.4,027.2,000.0,037.9,030.9,34.4,0000.0,0009.37,0004.32,0003.68
2023-07-01 00:04:00,SystemResetWarning,0833.4,5.00,000.00,029.4,027.4,000.0,037.9,030.9,34.2,0000.0,0009.75,0004.34,0003.70
2023-07-01 00:05:00,SystemResetWarning,0833.4,5.00,000.00,029.4,027.7,000.0,037.9,031.0,34.0,0000.0,0011.49,0004.39,0003.73
2023-07-01 00:06:00,SystemResetWarning,0833.4,5.00,000.00,029.4,027.8,000.0,038.0,031.0,33.2,0000.0,0011.72,0004.42,0003.75
2023-07-01 00:07:00,SystemResetWarning,0833.4,5.00,000.00,029.5,028.0,000.0,038.0,031.1,32.7,0000.0,0011.57,0004.43,0003.77
2023-07-01 00:08:00,SystemResetWarning,0833.4,5.00,000.00,029.5,028.1,000.0,038.0,031.1,32.1,0000.0,0011.41,0004.45,0003.77
2023-07-01 00:09:00,SystemResetWarning,0833.5,5.00,000.00,029.5,028.3,000.0,038.0,031.2,32.1,0000.0,0011.45,0004.44,0003.77
2023-07-01 00:10:00,SystemResetWarning,0833.6,5.00,000.00,029.6,028.4,000.0,038.0,031.2,32.2,0000.0,0011.42,0004.43,0003.76
2023-07-01 00:11:00,SystemResetWarning,0833.6,4.99,000.00,029.6,028.4,000.0,038.0,031.2,32.4,0000.0,0011.91,0004.46,0003.77
2023-07-01 00:12:00,SystemResetWarning,0833.6,4.99,000.00,029.6,028.4,000.0,038.1,031.3,32.5,0000.0,0011.72,0004.50,0003.78
2023-07-01 00:13:00,SystemResetWarning,0833.5,5.00,000.00,029.6,026.9,000.0,037.9,031.1,32.8,0000.0,0012.20,0004.48,0003.80
2023-07-01 00:14:00,SystemResetWarning,0833.5,5.00,000.00,029.5,025.6,000.0,037.8,030.9,32.5,0000.0,0012.10,0004.45,0003.79
2023-07-01 00:15:00,SystemResetWarning,0833.5,5.00,000.00,029.5,025.4,000.0,037.8,030.7,32.4,0000.0,0013.10,0004.47,0003.79
2023-07-01 00:16:00,SystemResetWarning,0833.5,5.01,000.00,029.4,025.7,000.0,037.8,030.6,32.4,0000.0,0012.00,0004.47,0003.80
2023-07-01 00:17:00,SystemResetWarning,0833.5,5.01,000.00,029.3,026.2,000.0,037.9,030.7,32.3,0000.0,0011.67,0004.50,0003.82
2023-07-01 00:18:00,SystemResetWarning,0833.5,4.99,000.00,029.3,026.6,000.0,037.9,030.7,32.9,0000.0,0011.75,0004.52,0003.82
2023-07-01 00:19:00,SystemResetWarning,0833.5,5.01,000.00,029.3,026.9,000.0,037.9,030.8,33.4,0000.0,0011.81,0004.52,0003.82
2023-07-01 00:20:00,SystemResetWarning,0833.4,5.01,000.00,029.3,027.2,000.0,037.9,030.9,33.0,0000.0,0011.78,0004.50,0003.81
2023-07-01 00:21:00,SystemResetWarning,0833.5,5.01,000.00,029.3,027.5,000.0,037.9,030.9,32.6,0000.0,0011.96,0004.51,0003.81
2023-07-01 00:22:00,SystemResetWarning,0833.4,4.99,000.00,029.4,027.7,000.0,037.9,031.0,32.7,0000.0,0011.25,0004.50,0003.81
2023-07-01 00:23:00,SystemResetWarning,0833.4,5.00,000.00,029.4,027.9,000.0,037.9,031.0,32.9,0000.0,0011.42,0004.45,0003.80
2023-07-01 00:24:00,SystemResetWarning,0833.4,5.00,000.00,029.4,028.0,000.0,037.9,031.1,33.1,0000.0,0011.11,0004.43,0003.77
2023-07-01 00:25:00,SystemResetWarning,0833.4,5.00,000.00,029.5,028.1,000.0,037.9,031.1,32.9,0000.0,0011.49,0004.43,0003.76
2023-07-01 00:26:00,SystemResetWarning,0833.3,5.00,000.00,029.5,028.3,000.0,038.0,031.1,33.1,0000.0,0010.94,0004.41,0003.77
2023-07-01 00:27:00,SystemResetWarning,0833.2,5.00,000.00,029.5,028.4,000.0,038.0,031.2,33.1,0000.0,0009.72,0004.38,0003.76
2023-07-01 00:28:00,SystemResetWarning,0833.3,4.99,000.00,029.6,028.4,000.0,038.0,031.2,32.9,0000.0,0009.66,0004.36,0003.74
2023-07-01 00:29:00,SystemResetWarning,0833.2,4.99,000.00,029.6,028.4,000.0,038.0,031.3,33.0,0000.0,0009.68,0004.34,0003.72
2023-07-01 00:30:00,SystemResetWarning,0833.2,5.00,000.00,029.6,027.0,000.0,037.9,031.1,32.9,0000.0,0009.52,0004.30,0003.72
2023-07-01 00:31:00,SystemResetWarning,0833.2,5.01,000.00,029.5,025.6,000.0,037.8,030.9,32.8,0000.0,0009.35,0004.28,0003.70
2023-07-01 00:32:00,SystemResetWarning,0833.2,5.01,000.00,029.4,025.4,000.0,037.8,030.6,32.9,0000.0,0009.11,0004.24,0003.70
2023-07-01 00:33:00,SystemResetWarning,0833.3,5.01,000.00,029.3,025.7,000.0,037.8,030.5,33.1,0000.0,0009.70,0004.22,0003.69
2023-07-01 00:34:00,SystemResetWarning,0833.3,4.99,000.00,029.3,026.1,000.0,037.8,030.6,33.3,0000.0,0009.45,0004.21,0003.69
2023-07-01 00:35:00,SystemResetWarning,0833.3,5.01,000.00,029.3,026.5,000.0,037.8,030.7,33.5,0000.0,0008.97,0004.18,0003.68
2023-07-01 00:36:00,SystemResetWarning,0833.3,5.00,000.00,029.3,026.8,000.0,037.9,030.7,33.2,0000.0,0008.55,0004.20,0003.69
2023-07-01 00:37:00,SystemResetWarning,0833.2,5.01,000.00,029.3,027.1,000.0,037.9,030.8,33.4,0000.0,0008.60,0004.25,0003.69
2023-07-01 00:38:00,SystemResetWarning,0833.2,5.00,000.00,029.3,027.4,000.0,037.9,030.9,33.7,0000.0,0008.98,0004.27,0003.68
2023-07-01 00:39:00,SystemResetWarning,0833.2,4.99,000.00,029.3,027.6,000.0,037.9,030.9,33.1,0000.0,0009.05,0004.28,0003.67
2023-07-01 00:40:00,SystemResetWarning,0833.2,4.99,000.00,029.3,027.8,000.0,037.9,031.0,33.0,0000.0,0009.18,0004.29,0003.68
2023-07-01 00:41:00,SystemResetWarning,0833.2,5.00,000.00,029.4,028.0,000.0,037.9,031.0,32.9,0000.0,0010.68,0004.30,0003.68
2023-07-01 00:42:00,SystemResetWarning,0833.2,5.00,000.00,029.4,028.1,000.0,037.9,031.1,32.6,0000.0,0011.31,0004.31,0003.67
2023-07-01 00:43:00,SystemResetWarning,0833.2,5.00,000.00,029.4,028.2,000.0,037.9,031.1,32.0,0000.0,0011.10,0004.32,0003.67
2023-07-01 00:44:00,SystemResetWarning,0833.2,5.00,000.00,029.5,028.3,000.0,037.9,031.1,32.3,0000.0,0010.45,0004.34,0003.67
2023-07-01 00:45:00,SystemResetWarning,0833.3,5.01,000.00,029.5,028.4,000.0,038.0,031.2,32.4,0000.0,0011.25,0004.37,0003.66
2023-07-01 00:46:00,SystemResetWarning,0833.3,5.00,000.00,029.6,028.5,000.0,038.0,031.2,31.8,0000.0,0011.52,0004.40,0003.66
2023-07-01 00:47:00,SystemResetWarning,0833.2,4.99,000.00,029.6,028.1,000.0,038.0,031.2,31.7,0000.0,0012.14,0004.46,0003.65
2023-07-01 00:48:00,SystemResetWarning,0833.2,5.00,000.00,029.5,026.3,000.0,037.9,031.0,32.1,0000.0,0012.11,0004.41,0003.63
2023-07-01 00:49:00,SystemResetWarning,0833.2,5.01,000.00,029.5,025.5,000.0,037.8,030.8,31.1,0000.0,0011.78,0004.39,0003.63
2023-07-01 00:50:00,SystemResetWarning,0833.2,5.01,000.00,029.4,025.5,000.0,037.8,030.6,31.7,0000.0,0012.04,0004.40,0003.63
2023-07-01 00:51:00,SystemResetWarning,0833.2,5.01,000.00,029.3,025.9,000.0,037.8,030.5,32.5,0000.0,0011.83,0004.37,0003.63
2023-07-01 00:52:00,SystemResetWarning,0833.2,4.98,000.00,029.3,026.3,000.0,037.8,030.6,32.3,0000.0,0010.37,0004.36,0003.61
2023-07-01 00:53:00,SystemResetWarning,0833.3,5.01,000.00,029.3,026.7,000.0,037.8,030.7,31.8,0000.0,0009.65,0004.33,0003.62
2023-07-01 00:54:00,SystemResetWarning,0833.4,5.00,000.00,029.3,027.0,000.0,037.8,030.8,31.7,0000.0,0009.94,0004.33,0003.61
2023-07-01 00:55:00,SystemResetWarning,0833.4,5.00,000.00,029.3,027.3,000.0,037.8,030.8,31.4,0000.0,0010.50,0004.35,0003.61
2023-07-01 00:56:00,SystemResetWarning,0833.4,4.99,000.00,029.3,027.5,000.0,037.8,030.9,31.6,0000.0,0009.83,0004.34,0003.62
2023-07-01 00:57:00,SystemResetWarning,0833.4,5.00,000.00,029.3,027.7,000.0,037.9,030.9,31.4,0000.0,0009.55,0004.33,0003.62
2023-07-01 00:58:00,SystemResetWarning,0833.4,5.00,000.00,029.4,027.9,000.0,037.9,031.0,30.2,0000.0,0009.05,0004.32,0003.62
2023-07-01 00:59:00,SystemResetWarning,0833.4,5.00,000.00,029.4,028.0,000.0,037.9,031.0,30.4,0000.0,0008.87,0004.31,0003.63
